Nellis AFB, NV

2:07 AM PDT on July 23, 2017 (GMT -0700)
Nellis Air Force Base

Weather History for KLSV - November, 2012

Change the Weather History Date:

Monday, November 19, 2012

  Actual Average Record
Temperature  
Mean Temperature 58 °F -  
Max Temperature 68 °F 63 °F 76 °F (2007)
Min Temperature 48 °F 40 °F 28 °F (2000)
Degree Days  
Heating Degree Days 7    
Growing Degree Days 8 (Base 50)    
Moisture  
Dew Point 39 °F    
Average Humidity 50    
Maximum Humidity 66    
Minimum Humidity 35    
Precipitation  
Precipitation 0.00 in - - ()
Sea Level Pressure  
Sea Level Pressure 30.18 in    
Wind  
Wind Speed 5 mph (NE)    
Max Wind Speed 12 mph    
Max Gust Speed -    
Visibility 10 miles    
Events      
Averages and records for this station are not official NWS values.
T = Trace of Precipitation, MM = Missing Value Source: NWS Daily Summary

Daily Weather History Graph

Daily Weather History Graph

Search for Another Location

Airport or City:

Trip Planner

Search our weather history database for the weather conditions in past years. The results will help you decide how hot, cold, wet, or windy it might be!

Date:

Astronomy

Nov. 19, 2012 Rise Set
Actual Time 6:21 AM PST 4:29 PM PST
Civil Twilight 5:54 AM PST 4:56 PM PST
Nautical Twilight 5:22 AM PST 5:28 PM PST
Astronomical Twilight 4:52 AM PST 5:58 PM PST
Moon 11:30 AM PST (11/19) 10:56 PM PST (11/19)
Length of Visible Light 11h 02m
Length of Day
10h 07m
Waxing Crescent, 42% of the Moon is Illuminated
Nov 19
Waxing Crescent
Nov 20
First Quarter
Nov 28
Full
Dec 6
Last Quarter
Dec 13
New

Hourly Weather History & Observations

Time (PST) Temp. Dew Point Humidity Pressure Visibility Wind Dir Wind Speed Gust Speed Precip Events Conditions
12:58 AM 51.3 °F 39.2 °F 63% 30.11 in 10.0 mi North 5.8 mph - N/A   Clear
1:58 AM 50.9 °F 38.1 °F 62% 30.11 in 10.0 mi NE 2.3 mph - N/A   Clear
2:58 AM 48.4 °F 37.4 °F 66% 30.12 in 10.0 mi NE 4.6 mph - N/A   Clear
3:58 AM 49.6 °F 37.9 °F 64% 30.12 in 10.0 mi NNE 6.9 mph - N/A   Clear
4:58 AM 48.9 °F 37.4 °F 64% 30.14 in 10.0 mi NNE 5.8 mph - N/A   Clear
5:58 AM 49.3 °F 37.4 °F 64% 30.17 in 10.0 mi NE 5.8 mph - N/A   Clear
6:58 AM 49.3 °F 37.4 °F 64% 30.17 in 10.0 mi NE 5.8 mph - N/A   Clear
7:56 AM 53.6 °F 39.2 °F 58% 30.24 in 10.0 mi NNE 3.5 mph - N/A   Clear
8:55 AM 59.9 °F 39.9 °F 48% 30.26 in 10.0 mi ENE 11.5 mph - N/A   Clear
9:55 AM 63.1 °F 40.6 °F 44% 30.27 in 10.0 mi Calm Calm - N/A   Clear
10:56 AM 64.4 °F 41.0 °F 42% 30.24 in 10.0 mi Calm Calm - N/A   Clear
11:56 AM 66.2 °F 41.0 °F 40% 30.20 in 10.0 mi Calm Calm - N/A   Clear
12:58 PM 67.3 °F 39.7 °F 36% 30.17 in 10.0 mi East 6.9 mph - N/A   Clear
1:58 PM 68.4 °F 39.4 °F 35% 30.15 in 10.0 mi East 6.9 mph - N/A   Clear
2:58 PM 68.7 °F 39.7 °F 35% 30.15 in 10.0 mi East 5.8 mph - N/A   Clear
3:58 PM 68.2 °F 39.2 °F 35% 30.15 in 10.0 mi East 5.8 mph - N/A   Clear
4:58 PM 65.1 °F 38.3 °F 37% 30.18 in 10.0 mi NE 5.8 mph - N/A   Clear
5:58 PM 59.2 °F 37.0 °F 44% 30.20 in 10.0 mi East 6.9 mph - N/A   Clear
6:58 PM 60.3 °F 38.5 °F 44% 30.20 in 10.0 mi East 5.8 mph - N/A   Clear
7:58 PM 59.9 °F 38.1 °F 44% 30.21 in 10.0 mi ENE 8.1 mph - N/A   Clear
8:58 PM 57.6 °F 37.8 °F 48% 30.22 in 10.0 mi NE 6.9 mph - N/A   Clear
9:58 PM 56.5 °F 37.8 °F 50% 30.22 in 10.0 mi NNE 4.6 mph - N/A   Clear
10:58 PM 53.6 °F 37.2 °F 54% 30.22 in 10.0 mi North 3.5 mph - N/A   Clear
11:58 PM 51.8 °F 36.9 °F 57% 30.22 in 10.0 mi North 3.5 mph - N/A   Clear